Home   Weather   Charlottetown   Past weeks

Flag for Canada Past Weather in Charlottetown, Prince Edward Island, Canada — Yesterday and Last 2 Weeks

Now
28 °F

Light snow. Mostly cloudy.


Feels Like: 19 °F
Forecast: 14 / 28 °F
Wind: 10 mph from South

Location: Charlottetown

Current Time: Jan 19, 2017 at 1:17:07 pm

Latest Report: Jan 19, 2017 at 12:00 pm


Visibility: 12 mi

Pressure: 29.99 "Hg

Humidity: 80%

Dew Point: 23 °F

Location of CharlottetownLocation

Past Weather in Charlottetown — Graph

°F

Charlottetown Temperature Yesterday

Maximum temperature yesterday: 23 °F (at 1:00 pm)
Minimum temperature yesterday: 10 °F (at 9:00 pm)
Average temperature yesterday: 18 °F

High & Low Weather Summary for the Past Weeks

 TemperatureHumidityPressure
High45 °F (Jan 12, 4:00 pm)100% (Jan 4, 5:38 pm)30.78 "Hg (Jan 4, 5:38 pm)
Low-2 °F (Jan 10, 5:00 am)42% (Jan 13, 8:00 pm)29.23 "Hg (Jan 4, 3:00 pm)
Average22 °F75%30.09 "Hg
* Reported Jan 4 11:00 am — Jan 19 11:55 am, Charlottetown, Weather by CustomWeather, © 2017

Note: Actual official high and low records may vary slightly from our data, if they occured in-between our weather recording intervals... More about our weather records

Advertising

Charlottetown Weather History for the Previous 24 Hours

Scroll right to see more
 ConditionsComfort  
Time TempWeatherWind HumidityBarometerVisibility
11:55 am
Thu, Jan 19
28 °FLight snow. Mostly cloudy.9 mph80%30.00 "Hg12 mi
11:16 am28 °FLight mixture of precip. Mostly cloudy.7 mph80%30.02 "Hg15 mi
10:00 am25 °FLight snow. More clouds than sun.6 mph86%30.05 "Hg12 mi
9:44 am25 °FLight snow. More clouds than sun.6 mph86%30.05 "Hg15 mi
9:00 am23 °FMostly cloudy.6 mph86%30.06 "Hg15 mi
8:00 am23 °FMostly cloudy.5 mph80%30.06 "Hg15 mi
7:00 am21 °FMostly cloudy.5 mph86%30.06 "Hg15 mi
6:00 am21 °FMostly cloudy.3 mph80%30.07 "Hg15 mi
5:00 am19 °FMostly cloudy.5 mph86%30.07 "Hg15 mi
4:00 am18 °FMostly cloudy.3 mph86%30.09 "Hg15 mi
3:00 am14 °FPassing clouds.3 mph85%30.12 "Hg15 mi
2:00 am14 °FPartly cloudy.3 mph85%30.14 "Hg15 mi
1:00 am14 °FPassing clouds.3 mph85%30.14 "Hg15 mi
12:00 am14 °FClear.3 mph85%30.14 "Hg15 mi
11:00 pm
Wed, Jan 18
10 °FClear.3 mph85%30.16 "Hg15 mi
10:00 pm12 °FClear.No wind85%30.17 "Hg15 mi
9:00 pm10 °FClear.2 mph85%30.18 "Hg15 mi
8:00 pm14 °FPassing clouds.2 mph79%30.18 "Hg15 mi
7:00 pm12 °FPassing clouds.3 mph79%30.19 "Hg15 mi
6:00 pm16 °FPassing clouds.2 mph73%30.20 "Hg15 mi
5:00 pm21 °FPassing clouds.5 mph68%30.22 "Hg15 mi
4:00 pm23 °FPartly sunny.6 mph63%30.22 "Hg15 mi
3:00 pm23 °FPartly sunny.2 mph63%30.22 "Hg15 mi
2:00 pm23 °FPartly sunny.5 mph63%30.22 "Hg15 mi
1:44 pm23 °FPartly sunny.2 mph63%30.22 "Hg15 mi
1:00 pm23 °FPartly sunny.2 mph63%30.24 "Hg15 mi
Weather by CustomWeather, © 2017

See weather overviewHow to use our weather pages